User: anonymous
Location: Columbia
(38.9520°N, 92.3340°W)
Time: 22:06:43
(UTC-05:00)
Language:

Cosmos 2100 Rocket - Orbit

View from above orbital plane
View from above orbital plane
View from above satellite
View from above satellite

Ground track
Ground track

The orbit data is extracted from the following two-line orbital elements,

1 20805U 90083B   14205.94588902  .00000058  00000-0  44198-4 0  7959
2 20805 082.9390 126.5509 0032092 108.8349 299.3852 13.75710928197890
Epoch (UTC): 24 July 2014 22:42:04
Eccentricity: 0.0032092
inclination: 82.9390°
perigee height: 955 km
apogee height: 1003 km
right ascension of ascending node: 126.5509°
argument of perigee: 108.8349°
revolutions per day: 13.75710928
mean anomaly at epoch: 299.3852°
orbit number at epoch: 19789

The dashed part of the orbit path shows where the satellite is in the earth's shadow,  

DLR